Find Kosmos-1603

NORAD ID: 15333 Int'l Des: 1984-106 Owner: TSN108 Country: SU operational
LEOCIRCULAR

Live Position

Loading 3D Globe...

About Kosmos-1603

Description loading...

Upcoming Passes

Passes for default location (London). Set your location on the main map for personalized predictions.

Altitude History

Loading altitude history...

Two-Line Element Set

1 15333U 84106A 26107.18474846 -.00000244 00000-0 -10230-3 0 9993
2 15333 71.0263 175.6950 0020798 328.5411 31.4466 14.14509039144110
Epoch: Apr 17, 2026 • Age: 10 hours

Current Status

Altitude 835.5 km
Velocity 7.44 km/s
Sub-Earth Point 14.45°N, 113.78°E
Launch Date Sep 28, 1984
Age 41.5 years
Type other

Technical Details

Classification Payload
Mass 3250.00 kg
Dry Mass 3250.00 kg
Total Mass 3250.00 kg
Length 4.50 m
Diameter 1.40 m
Span 22.70 m
Shape Cyl + 2 Pan + Ant
Manufacturer YUZH
Bus Type Tselina-2
Phase Status In Orbit
Owner/State TSN108/SU

Most Searched